^^
Station Historical Data
Daily Summary for February 1, 2018 Units:  English    Metric   Both
« Previous Day
Next Day »
Daily Weekly Monthly Yearly Custom
  High: Low: Average:
Temperature: TemperatureC °F -2.2 °F -1.3 °F
Dew Point: DewpointC °F -3.2 °F -2.1 °F
Humidity: Humidity% 93% 94%
Wind Speed: WindSpeedKMHmph 0.0mph 6.1mph
Wind Gust: WindSpeedGustKMHmph - -
Wind- - ESE
Pressure: PressurehPa in 994.8 in -
Precipitation: 42.9 in    
Historical Graphs
 
 
Tabular Data for February 1, 2018
Time Temperature Dew Point Pressure Wind Wind Speed Wind Gust Humidity Rainfall Rate (Hourly) solar Conditions
TemperatureC °F DewpointC °F PressurehPa in Calm     Humidity% HourlyPrecipMM in SoftwareType W/m2 Conditions
00:04 -2.2 °F -3.2 °F 1003.9 in ESE 6.6 mph 13.0 mph 93% 0.0 in WeatherDisplay:10.37 W/m2 FEW
00:09 -2.2 °F -3.2 °F 1003.9 in East 4.7 mph 16.7 mph 93% 0.0 in WeatherDisplay:10.37 W/m2 FEW
00:14 -2.2 °F -3.2 °F 1003.9 in East 4.7 mph 5.6 mph 93% 0.0 in WeatherDisplay:10.37 W/m2 FEW
00:19 -2.2 °F -3.2 °F 1003.6 in East 6.9 mph 14.8 mph 93% 0.0 in WeatherDisplay:10.37 W/m2 FEW
00:24 -2.2 °F -3.2 °F 1003.6 in SE 5.3 mph 11.1 mph 93% 0.0 in WeatherDisplay:10.37 W/m2 FEW
00:29 -2.2 °F -3.2 °F 1003.6 in ESE 3.9 mph 9.3 mph 93% 0.0 in WeatherDisplay:10.37 W/m2 FEW
00:34 -2.2 °F -3.2 °F 1003.6 in ESE 4.7 mph 14.8 mph 93% 0.0 in WeatherDisplay:10.37 W/m2 FEW
00:39 -2.1 °F -3.1 °F 1003.3 in East 2.9 mph 13.0 mph 93% 0.0 in WeatherDisplay:10.37 W/m2 FEW
00:44 -2.1 °F -3.1 °F 1003.3 in ESE 5.0 mph 6.4 mph 93% 0.0 in WeatherDisplay:10.37 W/m2 FEW
00:49 -2.1 °F -3.1 °F 1003.3 in SE 3.9 mph 8.0 mph 93% 0.0 in WeatherDisplay:10.37 W/m2 FEW
00:54 -2.1 °F -3.1 °F 1003.3 in SE 9.3 mph 14.8 mph 93% 0.0 in WeatherDisplay:10.37 W/m2 FEW
00:59 -2.1 °F -3.1 °F 1003.3 in East 4.3 mph 9.3 mph 93% 0.0 in WeatherDisplay:10.37 W/m2 FEW
01:04 -2.1 °F -3.1 °F 1002.9 in SE 4.5 mph 8.0 mph 93% 0.0 in WeatherDisplay:10.37 W/m2 FEW
01:09 -2.1 °F -3.1 °F 1002.9 in SSE 7.1 mph 8.0 mph 93% 0.0 in WeatherDisplay:10.37 W/m2 FEW
01:14 -2.1 °F -3.1 °F 1002.9 in SSW 4.7 mph 13.0 mph 93% 0.0 in WeatherDisplay:10.37 W/m2 FEW
01:19 -2.1 °F -3.1 °F 1002.9 in ENE 4.0 mph 13.0 mph 93% 0.3 in WeatherDisplay:10.37 W/m2 RA
01:24 -2.1 °F -3.1 °F 1002.9 in SE 8.4 mph 13.0 mph 93% 0.3 in WeatherDisplay:10.37 W/m2 RA
01:29 -2.1 °F -3.1 °F 1002.9 in ESE 9.5 mph 22.2 mph 93% 0.3 in WeatherDisplay:10.37 W/m2 FEW
01:34 -2.1 °F -3.1 °F 1002.9 in ENE 6.8 mph 9.7 mph 93% 0.3 in WeatherDisplay:10.37 W/m2 FEW
01:39 -2.1 °F -2.9 °F 1002.9 in East 6.8 mph 12.9 mph 94% 0.5 in WeatherDisplay:10.37 W/m2 RA
01:44 -2.1 °F -2.9 °F 1002.6 in ESE 3.4 mph 11.1 mph 94% 0.5 in WeatherDisplay:10.37 W/m2 RA
01:49 -2.2 °F -3.0 °F 1002.6 in SE 6.3 mph 18.5 mph 94% 0.5 in WeatherDisplay:10.37 W/m2 RA
01:54 -2.2 °F -3.0 °F 1002.6 in SE 6.3 mph 18.5 mph 94% 0.5 in WeatherDisplay:10.37 W/m2 RA
01:59 -2.2 °F -3.0 °F 1002.6 in SE 6.9 mph 17.7 mph 94% 0.5 in WeatherDisplay:10.37 W/m2 FEW
02:04 -2.2 °F -3.0 °F 1002.6 in SE 4.5 mph 20.4 mph 94% 0.8 in WeatherDisplay:10.37 W/m2 RA
02:09 -2.2 °F -3.0 °F 1002.6 in NE 8.2 mph 17.7 mph 94% 0.8 in WeatherDisplay:10.37 W/m2 RA
02:14 -2.2 °F -3.0 °F 1002.3 in ESE 6.4 mph 9.3 mph 94% 0.8 in WeatherDisplay:10.37 W/m2 FEW
02:19 -2.1 °F -2.9 °F 1002.3 in East 8.0 mph 11.1 mph 94% 0.5 in WeatherDisplay:10.37 W/m2 FEW
02:24 -2.1 °F -2.9 °F 1002.3 in East 9.2 mph 17.7 mph 94% 0.8 in WeatherDisplay:10.37 W/m2 RA
02:29 -2.1 °F -2.9 °F 1002.3 in SE 3.9 mph 16.7 mph 94% 0.8 in WeatherDisplay:10.37 W/m2 RA
02:34 -2.1 °F -2.9 °F 1002.3 in SE 13.2 mph 20.4 mph 94% 0.8 in WeatherDisplay:10.37 W/m2 FEW
02:39 -2.1 °F -2.9 °F 1001.9 in SE 4.2 mph 11.1 mph 94% 0.5 in WeatherDisplay:10.37 W/m2 FEW
02:44 -2.1 °F -2.9 °F 1001.6 in East 6.1 mph 18.5 mph 94% 0.8 in WeatherDisplay:10.37 W/m2 RA
02:49 -2.1 °F -2.9 °F 1001.6 in East 10.0 mph 16.7 mph 94% 0.5 in WeatherDisplay:10.37 W/m2 RA
02:54 -2.0 °F -2.8 °F 1001.6 in East 9.5 mph 16.7 mph 94% 0.5 in WeatherDisplay:10.37 W/m2 FEW
02:59 -2.0 °F -2.8 °F 1001.6 in ESE 7.4 mph 13.0 mph 94% 0.5 in WeatherDisplay:10.37 W/m2 FEW
03:04 -2.0 °F -2.8 °F 1001.6 in ESE 6.3 mph 14.8 mph 94% 0.5 in WeatherDisplay:10.37 W/m2 RA
03:09 -2.0 °F -2.8 °F 1001.2 in SE 9.2 mph 18.5 mph 94% 0.5 in WeatherDisplay:10.37 W/m2 RA
03:14 -1.9 °F -2.8 °F 1001.2 in SSE 6.4 mph 18.5 mph 94% 0.5 in WeatherDisplay:10.37 W/m2 FEW
03:19 -1.9 °F -2.8 °F 1001.2 in SE 4.8 mph 11.1 mph 94% 0.8 in WeatherDisplay:10.37 W/m2 RA
03:24 -1.9 °F -2.8 °F 1000.9 in East 6.9 mph 7.4 mph 94% 0.5 in WeatherDisplay:10.37 W/m2 RA
03:29 -1.9 °F -2.8 °F 1000.9 in East 9.0 mph 13.0 mph 94% 0.8 in WeatherDisplay:10.37 W/m2 RA
03:34 -1.9 °F -2.7 °F 1000.9 in ESE 8.0 mph 13.0 mph 94% 0.8 in WeatherDisplay:10.37 W/m2 RA
03:39 -1.9 °F -2.7 °F 1000.9 in East 7.7 mph 14.8 mph 94% 1.0 in WeatherDisplay:10.37 W/m2 RA
03:44 -1.8 °F -2.7 °F 1000.6 in East 6.6 mph 11.1 mph 94% 0.8 in WeatherDisplay:10.37 W/m2 RA
03:49 -1.8 °F -2.7 °F 1000.6 in ESE 11.9 mph 22.2 mph 94% 1.0 in WeatherDisplay:10.37 W/m2 RA
03:54 -1.8 °F -2.7 °F 1000.6 in ESE 6.8 mph 13.0 mph 94% 1.0 in WeatherDisplay:10.37 W/m2 RA
03:59 -1.8 °F -2.7 °F 1000.6 in ESE 14.0 mph 17.7 mph 94% 1.3 in WeatherDisplay:10.37 W/m2 RA
04:04 -1.8 °F -2.6 °F 1000.6 in ESE 5.8 mph 16.7 mph 94% 1.3 in WeatherDisplay:10.37 W/m2 RA
04:09 -1.8 °F -2.6 °F 1000.6 in East 1.8 mph 18.5 mph 94% 1.3 in WeatherDisplay:10.37 W/m2 RA
04:14 -1.8 °F -2.6 °F 1000.6 in ENE 4.5 mph 5.6 mph 94% 1.5 in WeatherDisplay:10.37 W/m2 RA
04:19 -1.8 °F -2.6 °F 1000.2 in ENE 13.0 mph 18.5 mph 94% 1.5 in WeatherDisplay:10.37 W/m2 RA
04:24 -1.8 °F -2.6 °F 1000.2 in SE 8.7 mph 14.8 mph 94% 1.5 in WeatherDisplay:10.37 W/m2 RA
04:29 -1.7 °F -2.6 °F 999.9 in NE 7.6 mph 20.4 mph 94% 1.5 in WeatherDisplay:10.37 W/m2 RA
04:34 -1.7 °F -2.6 °F 999.9 in ESE 7.6 mph 9.7 mph 94% 1.5 in WeatherDisplay:10.37 W/m2 RA
04:39 -1.7 °F -2.6 °F 999.9 in SSE 10.5 mph 22.2 mph 94% 1.5 in WeatherDisplay:10.37 W/m2 RA
04:44 -1.7 °F -2.6 °F 999.9 in East 14.2 mph 22.2 mph 94% 1.8 in WeatherDisplay:10.37 W/m2 RA
04:49 -1.7 °F -2.6 °F 999.9 in East 9.3 mph 20.4 mph 94% 1.5 in WeatherDisplay:10.37 W/m2 RA
04:54 -1.7 °F -2.6 °F 999.5 in East 8.2 mph 20.4 mph 94% 1.8 in WeatherDisplay:10.37 W/m2 RA
04:59 -1.7 °F -2.5 °F 999.9 in East 15.9 mph 27.8 mph 94% 1.5 in WeatherDisplay:10.37 W/m2 RA
05:04 -1.7 °F -2.5 °F 999.5 in SE 16.3 mph 24.1 mph 94% 1.5 in WeatherDisplay:10.37 W/m2 RA
05:09 -1.7 °F -2.5 °F 999.5 in ENE 10.5 mph 16.7 mph 94% 1.5 in WeatherDisplay:10.37 W/m2 RA
05:14 -1.7 °F -2.5 °F 999.2 in ESE 4.3 mph 19.3 mph 94% 1.5 in WeatherDisplay:10.37 W/m2 FEW
05:19 -1.7 °F -2.5 °F 999.2 in ENE 10.8 mph 22.2 mph 94% 1.3 in WeatherDisplay:10.37 W/m2 FEW
05:24 -1.7 °F -2.6 °F 999.2 in ESE 11.9 mph 18.5 mph 94% 1.3 in WeatherDisplay:10.37 W/m2 FEW
05:29 -1.7 °F -2.6 °F 999.2 in East 14.5 mph 16.7 mph 94% 1.0 in WeatherDisplay:10.37 W/m2 FEW
05:34 -1.7 °F -2.6 °F 999.2 in NNE 11.1 mph 12.9 mph 94% 1.0 in WeatherDisplay:10.37 W/m2 RA
05:39 -1.7 °F -2.6 °F 998.9 in East 7.1 mph 18.5 mph 94% 1.3 in WeatherDisplay:10.37 W/m2 RA
05:44 -1.7 °F -2.6 °F 998.9 in ESE 1.9 mph 18.5 mph 94% 1.3 in WeatherDisplay:10.37 W/m2 RA
05:49 -1.7 °F -2.6 °F 998.9 in SE 6.3 mph 11.1 mph 94% 1.5 in WeatherDisplay:10.37 W/m2 RA
05:54 -1.7 °F -2.6 °F 998.9 in East 16.4 mph 24.1 mph 94% 1.5 in WeatherDisplay:10.37 W/m2 RA
05:59 -1.7 °F -2.6 °F 998.9 in ESE 2.3 mph 25.9 mph 94% 1.8 in WeatherDisplay:10.37 W/m2 RA
06:04 -1.7 °F -2.6 °F 998.9 in NE 9.3 mph 24.1 mph 94% 2.0 in WeatherDisplay:10.37 W/m2 RA
06:09 -1.7 °F -2.6 °F 998.9 in NE 8.7 mph 25.9 mph 94% 2.3 in WeatherDisplay:10.37 W/m2 RA
06:14 -1.7 °F -2.6 °F 998.9 in East 10.9 mph 31.5 mph 94% 2.3 in WeatherDisplay:10.37 W/m2 RA
06:19 -1.7 °F -2.6 °F 998.9 in SSE 10.1 mph 17.7 mph 94% 2.5 in WeatherDisplay:10.37 W/m2 RA
06:24 -1.8 °F -2.6 °F 998.5 in SE 10.6 mph 25.9 mph 94% 2.8 in WeatherDisplay:10.37 W/m2 RA
06:29 -1.8 °F -2.6 °F 998.9 in ENE 12.1 mph 16.7 mph 94% 3.0 in WeatherDisplay:10.37 W/m2 RA
06:34 -1.8 °F -2.6 °F 998.5 in East 12.6 mph 20.9 mph 94% 3.0 in WeatherDisplay:10.37 W/m2 RA
06:39 -1.8 °F -2.6 °F 998.5 in ESE 10.1 mph 17.7 mph 94% 2.5 in WeatherDisplay:10.37 W/m2 RA
06:45 -1.8 °F -2.7 °F 998.5 in SSE 8.0 mph 14.8 mph 94% 2.5 in WeatherDisplay:10.37 W/m2 RA
06:50 -1.8 °F -2.7 °F 998.5 in ESE 13.2 mph 25.9 mph 94% 2.3 in WeatherDisplay:10.37 W/m2 RA
06:55 -1.9 °F -2.7 °F 998.5 in SE 13.2 mph 24.1 mph 94% 2.3 in WeatherDisplay:10.37 W/m2 RA
07:00 -1.9 °F -2.7 °F 998.2 in SE 9.7 mph 18.5 mph 94% 2.3 in WeatherDisplay:10.37 W/m2 RA
07:05 -1.9 °F -2.7 °F 998.2 in SE 12.7 mph 20.4 mph 94% 2.3 in WeatherDisplay:10.37 W/m2 RA
07:10 -1.9 °F -2.7 °F 998.2 in ENE 6.9 mph 18.5 mph 94% 2.3 in WeatherDisplay:10.37 W/m2 RA
07:15 -1.9 °F -2.8 °F 998.2 in ENE 11.9 mph 25.9 mph 94% 2.5 in WeatherDisplay:10.37 W/m2 RA
07:20 -1.9 °F -2.8 °F 998.2 in SE 13.0 mph 18.5 mph 94% 2.5 in WeatherDisplay:10.37 W/m2 RA
07:25 -1.9 °F -2.8 °F 998.2 in SE 11.6 mph 22.2 mph 94% 2.5 in WeatherDisplay:10.37 W/m2 RA
07:30 -2.0 °F -2.8 °F 998.2 in East 14.5 mph 25.9 mph 94% 2.5 in WeatherDisplay:10.37 W/m2 RA
07:35 -2.0 °F -2.8 °F 998.2 in NE 6.9 mph 25.9 mph 94% 2.5 in WeatherDisplay:10.37 W/m2 RA
07:40 -2.0 °F -2.8 °F 998.2 in ESE 5.8 mph 22.2 mph 94% 2.8 in WeatherDisplay:10.37 W/m2 RA
07:45 -2.0 °F -2.8 °F 997.9 in ENE 10.8 mph 20.4 mph 94% 3.0 in WeatherDisplay:10.37 W/m2 RA
07:50 -2.0 °F -2.8 °F 997.9 in SE 11.1 mph 14.8 mph 94% 3.0 in WeatherDisplay:10.37 W/m2 RA
07:55 -2.0 °F -2.8 °F 997.9 in SE 9.5 mph 18.5 mph 94% 3.3 in WeatherDisplay:10.37 W/m2 RA
08:00 -2.0 °F -2.8 °F 997.9 in ESE 9.8 mph 14.8 mph 94% 3.3 in WeatherDisplay:10.37 W/m2 RA
08:06 -2.0 °F -2.8 °F 997.9 in ENE 13.5 mph 27.8 mph 94% 3.0 in WeatherDisplay:10.37 W/m2 RA
08:11 -1.9 °F -2.8 °F 997.5 in ESE 6.3 mph 18.5 mph 94% 2.8 in WeatherDisplay:10.37 W/m2 RA
08:16 -2.0 °F -2.8 °F 997.5 in ESE 7.1 mph 18.5 mph 94% 2.8 in WeatherDisplay:10.37 W/m2 RA
08:21 -1.9 °F -2.8 °F 997.5 in ENE 8.2 mph 18.5 mph 94% 3.0 in WeatherDisplay:10.37 W/m2 RA
08:26 -2.0 °F -2.8 °F 997.2 in ENE 11.7 mph 22.2 mph 94% 3.0 in WeatherDisplay:10.37 W/m2 RA
08:31 -2.0 °F -2.8 °F 997.2 in ENE 8.0 mph 22.2 mph 94% 3.3 in WeatherDisplay:10.37 W/m2 RA
08:36 -1.9 °F -2.8 °F 997.2 in East 11.3 mph 22.2 mph 94% 3.3 in WeatherDisplay:10.37 W/m2 RA
08:42 -1.9 °F -2.8 °F 997.2 in NE 11.7 mph 22.2 mph 94% 3.3 in WeatherDisplay:10.37 W/m2 RA
08:47 -1.9 °F -2.8 °F 997.2 in ENE 11.9 mph 20.4 mph 94% 3.3 in WeatherDisplay:10.37 W/m2 RA
08:52 -1.9 °F -2.8 °F 997.2 in East 8.7 mph 18.5 mph 94% 3.0 in WeatherDisplay:10.37 W/m2 RA
08:57 -1.9 °F -2.8 °F 997.2 in ENE 15.4 mph 31.5 mph 94% 3.0 in WeatherDisplay:10.37 W/m2 RA
09:02 -1.9 °F -2.8 °F 997.2 in SE 10.6 mph 16.7 mph 94% 3.3 in WeatherDisplay:10.37 W/m2 RA
09:08 -1.9 °F -2.7 °F 996.8 in SE 8.2 mph 20.4 mph 94% 3.3 in WeatherDisplay:10.37 W/m2 RA
09:13 -1.9 °F -2.7 °F 996.8 in East 13.8 mph 24.1 mph 94% 3.0 in WeatherDisplay:10.37 W/m2 RA
09:18 -1.9 °F -2.7 °F 996.8 in SE 6.4 mph 11.1 mph 94% 3.0 in WeatherDisplay:10.37 W/m2 RA
09:23 -1.9 °F -2.7 °F 996.8 in SE 12.4 mph 31.5 mph 94% 3.3 in WeatherDisplay:10.37 W/m2 RA
09:28 -1.9 °F -2.7 °F 996.8 in ESE 13.5 mph 13.5 mph 94% 3.0 in WeatherDisplay:10.37 W/m2 RA
09:33 -1.9 °F -2.7 °F 996.8 in East 12.2 mph 22.2 mph 94% 3.0 in WeatherDisplay:10.37 W/m2 RA
09:38 -1.8 °F -2.7 °F 996.8 in ESE 10.3 mph 18.5 mph 94% 3.0 in WeatherDisplay:10.37 W/m2 RA
09:43 -1.8 °F -2.7 °F 996.5 in NNE 11.6 mph 24.1 mph 94% 3.0 in WeatherDisplay:10.37 W/m2 RA
09:48 -1.8 °F -2.7 °F 996.5 in ESE 11.6 mph 29.6 mph 94% 3.0 in WeatherDisplay:10.37 W/m2 RA
09:53 -1.8 °F -2.7 °F 996.5 in SE 13.4 mph 27.8 mph 94% 3.3 in WeatherDisplay:10.37 W/m2 RA
09:58 -1.8 °F -2.7 °F 996.5 in East 7.7 mph 24.1 mph 94% 3.3 in WeatherDisplay:10.37 W/m2 RA
10:03 -1.8 °F -2.7 °F 996.5 in SE 11.7 mph 14.8 mph 94% 3.0 in WeatherDisplay:10.37 W/m2 RA
10:08 -1.8 °F -2.7 °F 996.5 in East 7.2 mph 18.5 mph 94% 3.0 in WeatherDisplay:10.37 W/m2 RA
10:13 -1.8 °F -2.7 °F 996.5 in South 12.4 mph 13.0 mph 94% 2.8 in WeatherDisplay:10.37 W/m2 RA
10:19 -1.8 °F -2.7 °F 996.2 in SE 14.2 mph 18.5 mph 94% 2.5 in WeatherDisplay:10.37 W/m2 RA
10:24 -1.8 °F -2.6 °F 996.5 in ENE 7.4 mph 16.7 mph 94% 2.8 in WeatherDisplay:10.37 W/m2 RA
10:29 -1.8 °F -2.6 °F 996.2 in East 11.4 mph 20.4 mph 94% 3.0 in WeatherDisplay:10.37 W/m2 RA
10:34 -1.8 °F -2.6 °F 996.2 in South 11.1 mph 20.4 mph 94% 3.3 in WeatherDisplay:10.37 W/m2 RA
10:39 -1.8 °F -2.6 °F 996.2 in SE 12.1 mph 22.2 mph 94% 3.0 in WeatherDisplay:10.37 W/m2 RA
10:44 -1.7 °F -2.6 °F 996.2 in ESE 12.1 mph 18.5 mph 94% 3.3 in WeatherDisplay:10.37 W/m2 RA
10:49 -1.7 °F -2.6 °F 996.2 in East 8.2 mph 19.3 mph 94% 3.0 in WeatherDisplay:10.37 W/m2 RA
10:54 -1.7 °F -2.6 °F 996.2 in NE 10.1 mph 16.1 mph 94% 3.3 in WeatherDisplay:10.37 W/m2 RA
10:59 -1.7 °F -2.6 °F 996.2 in East 7.6 mph 17.7 mph 94% 3.3 in WeatherDisplay:10.37 W/m2 RA
11:04 -1.7 °F -2.5 °F 996.2 in East 14.8 mph 16.7 mph 94% 3.3 in WeatherDisplay:10.37 W/m2 RA
11:09 -1.7 °F -2.5 °F 995.8 in ENE 7.6 mph 16.7 mph 94% 3.6 in WeatherDisplay:10.37 W/m2 RA
11:14 -1.7 °F -2.5 °F 995.8 in NE 9.3 mph 18.5 mph 94% 3.8 in WeatherDisplay:10.37 W/m2 RA
11:19 -1.7 °F -2.5 °F 995.8 in ESE 8.7 mph 16.1 mph 94% 4.1 in WeatherDisplay:10.37 W/m2 RA
11:25 -1.7 °F -2.5 °F 995.8 in ESE 15.6 mph 24.1 mph 94% 3.6 in WeatherDisplay:10.37 W/m2 RA
11:30 -1.7 °F -2.5 °F 995.8 in SE 11.3 mph 20.4 mph 94% 3.6 in WeatherDisplay:10.37 W/m2 RA
11:36 -1.6 °F -2.4 °F 995.8 in East 9.7 mph 17.7 mph 94% 3.6 in WeatherDisplay:10.37 W/m2 RA
11:41 -1.7 °F -2.5 °F 995.8 in SE 11.1 mph 29.0 mph 94% 3.6 in WeatherDisplay:10.37 W/m2 RA
11:46 -1.7 °F -2.5 °F 995.8 in ESE 15.0 mph 27.8 mph 94% 3.6 in WeatherDisplay:10.37 W/m2 RA
11:51 -1.7 °F -2.5 °F 995.5 in NE 9.8 mph 18.5 mph 94% 3.6 in WeatherDisplay:10.37 W/m2 RA
11:56 -1.7 °F -2.5 °F 995.5 in NNE 14.3 mph 22.2 mph 94% 3.3 in WeatherDisplay:10.37 W/m2 RA
12:01 -1.7 °F -2.5 °F 995.5 in ENE 7.2 mph 16.7 mph 94% 3.6 in WeatherDisplay:10.37 W/m2 RA
12:06 -1.7 °F -2.5 °F 995.5 in SE 7.6 mph 22.2 mph 94% 3.3 in WeatherDisplay:10.37 W/m2 RA
12:11 -1.7 °F -2.5 °F 995.1 in East 8.2 mph 18.5 mph 94% 3.3 in WeatherDisplay:10.37 W/m2 RA
12:16 -1.7 °F -2.5 °F 995.5 in NE 10.8 mph 17.7 mph 94% 3.3 in WeatherDisplay:10.37 W/m2 RA
12:21 -1.7 °F -2.5 °F 995.5 in East 15.3 mph 20.9 mph 94% 3.3 in WeatherDisplay:10.37 W/m2 RA
12:26 -1.7 °F -2.5 °F 995.1 in ESE 10.6 mph 29.6 mph 94% 3.3 in WeatherDisplay:10.37 W/m2 RA
12:32 -1.7 °F -2.5 °F 995.5 in SE 12.1 mph 20.4 mph 94% 3.3 in WeatherDisplay:10.37 W/m2 RA
12:37 -1.7 °F -2.5 °F 995.5 in South 3.9 mph 16.7 mph 94% 3.3 in WeatherDisplay:10.37 W/m2 RA
12:42 -1.6 °F -2.4 °F 995.1 in NNE 8.0 mph 17.7 mph 94% 3.3 in WeatherDisplay:10.37 W/m2 RA
12:47 -1.6 °F -2.4 °F 995.1 in ENE 4.7 mph 18.5 mph 94% 3.3 in WeatherDisplay:10.37 W/m2 RA
12:52 -1.6 °F -2.4 °F 995.1 in SE 8.7 mph 18.5 mph 94% 3.3 in WeatherDisplay:10.37 W/m2 RA
12:57 -1.6 °F -2.4 °F 995.1 in SE 10.0 mph 14.8 mph 94% 3.3 in WeatherDisplay:10.37 W/m2 RA
13:02 -1.6 °F -2.4 °F 995.5 in ENE 10.0 mph 18.5 mph 94% 3.3 in WeatherDisplay:10.37 W/m2 RA
13:07 -1.6 °F -2.4 °F 995.5 in East 7.9 mph 18.5 mph 94% 3.3 in WeatherDisplay:10.37 W/m2 RA
13:12 -1.6 °F -2.4 °F 995.1 in East 9.7 mph 14.8 mph 94% 3.3 in WeatherDisplay:10.37 W/m2 RA
13:17 -1.5 °F -2.3 °F 995.1 in ESE 11.6 mph 16.1 mph 94% 3.3 in WeatherDisplay:10.37 W/m2 RA
13:22 -1.5 °F -2.3 °F 995.1 in ENE 9.0 mph 14.8 mph 94% 3.3 in WeatherDisplay:10.37 W/m2 RA
13:27 -1.5 °F -2.3 °F 995.1 in ESE 9.3 mph 20.4 mph 94% 3.0 in WeatherDisplay:10.37 W/m2 RA
13:33 -1.4 °F -2.3 °F 995.1 in ESE 8.7 mph 18.5 mph 94% 2.8 in WeatherDisplay:10.37 W/m2 RA
13:38 -1.4 °F -2.3 °F 995.1 in SE 12.2 mph 16.7 mph 94% 2.8 in WeatherDisplay:10.37 W/m2 RA
13:43 -1.4 °F -2.3 °F 995.1 in East 12.1 mph 18.5 mph 94% 2.5 in WeatherDisplay:10.37 W/m2 RA
13:48 -1.4 °F -2.3 °F 995.1 in ESE 8.8 mph 19.3 mph 94% 2.5 in WeatherDisplay:10.37 W/m2 RA
13:54 -1.4 °F -2.3 °F 995.1 in ESE 7.6 mph 16.7 mph 94% 2.8 in WeatherDisplay:10.37 W/m2 RA
13:59 -1.4 °F -2.3 °F 995.1 in East 11.7 mph 18.5 mph 94% 3.3 in WeatherDisplay:10.37 W/m2 RA
14:04 -1.4 °F -2.2 °F 995.1 in East 8.8 mph 20.4 mph 94% 3.3 in WeatherDisplay:10.37 W/m2 RA
14:09 -1.4 °F -2.2 °F 995.1 in ENE 3.5 mph 11.3 mph 94% 3.3 in WeatherDisplay:10.37 W/m2 RA
14:14 -1.3 °F -2.2 °F 995.1 in SE 4.5 mph 13.0 mph 94% 3.3 in WeatherDisplay:10.37 W/m2 RA
14:19 -1.3 °F -2.2 °F 995.1 in East 5.3 mph 14.8 mph 94% 3.3 in WeatherDisplay:10.37 W/m2 RA
14:24 -1.3 °F -2.2 °F 995.1 in East 8.7 mph 18.5 mph 94% 3.6 in WeatherDisplay:10.37 W/m2 RA
14:29 -1.3 °F -2.1 °F 995.1 in ESE 8.5 mph 13.0 mph 94% 3.6 in WeatherDisplay:10.37 W/m2 RA
14:34 -1.3 °F -2.1 °F 995.1 in ESE 10.1 mph 16.7 mph 94% 3.8 in WeatherDisplay:10.37 W/m2 RA
14:39 -1.3 °F -2.1 °F 995.1 in ESE 10.9 mph 18.5 mph 94% 4.1 in WeatherDisplay:10.37 W/m2 RA
14:44 -1.3 °F -2.1 °F 995.1 in ESE 10.9 mph 18.5 mph 94% 4.3 in WeatherDisplay:10.37 W/m2 RA
14:49 -1.3 °F -2.1 °F 995.1 in ENE 0.2 mph 6.4 mph 94% 4.3 in WeatherDisplay:10.37 W/m2 RA
14:54 -1.2 °F -2.1 °F 995.1 in SSE 5.8 mph 18.5 mph 94% 4.3 in WeatherDisplay:10.37 W/m2 RA
14:59 -1.2 °F -2.1 °F 995.1 in ESE 3.1 mph 13.0 mph 94% 4.1 in WeatherDisplay:10.37 W/m2 RA
15:04 -1.2 °F -2.1 °F 994.8 in East 4.5 mph 13.0 mph 94% 4.1 in WeatherDisplay:10.37 W/m2 RA
15:09 -1.2 °F -2.1 °F 995.1 in SSW 9.2 mph 18.5 mph 94% 4.1 in WeatherDisplay:10.37 W/m2 RA
15:14 -1.2 °F -2.0 °F 995.1 in South 4.7 mph 16.7 mph 94% 3.8 in WeatherDisplay:10.37 W/m2 RA
15:19 -1.2 °F -2.0 °F 995.1 in East 6.9 mph 13.0 mph 94% 4.1 in WeatherDisplay:10.37 W/m2 RA
15:24 -1.2 °F -2.0 °F 995.1 in SE 4.8 mph 9.3 mph 94% 4.1 in WeatherDisplay:10.37 W/m2 RA
15:29 -1.1 °F -1.9 °F 995.1 in ESE 3.7 mph 9.3 mph 94% 4.3 in WeatherDisplay:10.37 W/m2 RA
15:34 -1.1 °F -1.9 °F 995.1 in ENE 3.4 mph 11.1 mph 94% 4.3 in WeatherDisplay:10.37 W/m2 RA
15:39 -1.1 °F -1.9 °F 995.1 in ENE 8.7 mph 18.5 mph 94% 4.3 in WeatherDisplay:10.37 W/m2 RA
15:44 -1.0 °F -1.8 °F 995.1 in ESE 2.7 mph 9.7 mph 94% 4.3 in WeatherDisplay:10.37 W/m2 RA
15:49 -1.0 °F -1.8 °F 995.1 in ENE 6.0 mph 9.3 mph 94% 4.3 in WeatherDisplay:10.37 W/m2 RA
15:54 -1.0 °F -1.8 °F 995.1 in ESE 5.6 mph 9.3 mph 94% 4.3 in WeatherDisplay:10.37 W/m2 RA
15:59 -1.0 °F -1.8 °F 995.1 in East 6.8 mph 14.5 mph 94% 4.1 in WeatherDisplay:10.37 W/m2 RA
16:04 -0.9 °F -1.8 °F 995.1 in ENE 0.3 mph 5.6 mph 94% 3.8 in WeatherDisplay:10.37 W/m2 RA
16:09 -0.9 °F -1.8 °F 995.5 in SE 5.6 mph 13.0 mph 94% 3.8 in WeatherDisplay:10.37 W/m2 RA
16:14 -0.9 °F -1.8 °F 995.5 in SSE 6.0 mph 11.1 mph 94% 3.8 in WeatherDisplay:10.37 W/m2 RA
16:19 -0.9 °F -1.7 °F 995.5 in East 3.1 mph 11.1 mph 94% 3.3 in WeatherDisplay:10.37 W/m2 RA
16:24 -0.9 °F -1.7 °F 995.5 in ESE 6.3 mph 9.3 mph 94% 3.3 in WeatherDisplay:10.37 W/m2 RA
16:29 -0.8 °F -1.7 °F 995.5 in ENE 5.0 mph 11.1 mph 94% 3.0 in WeatherDisplay:10.37 W/m2 RA
16:34 -0.8 °F -1.7 °F 995.5 in East 6.3 mph 13.0 mph 94% 2.8 in WeatherDisplay:10.37 W/m2 RA
16:39 -0.8 °F -1.7 °F 995.5 in ESE 7.7 mph 11.3 mph 94% 2.8 in WeatherDisplay:10.37 W/m2 RA
16:44 -0.8 °F -1.7 °F 995.5 in ESE 3.5 mph 9.7 mph 94% 2.3 in WeatherDisplay:10.37 W/m2 RA
16:49 -0.8 °F -1.6 °F 995.5 in ENE 1.1 mph 5.6 mph 94% 2.3 in WeatherDisplay:10.37 W/m2 RA
16:54 -0.8 °F -1.6 °F 995.5 in ENE 1.8 mph 5.6 mph 94% 2.0 in WeatherDisplay:10.37 W/m2 RA
16:59 -0.7 °F -1.6 °F 995.5 in ESE 4.2 mph 9.3 mph 94% 2.0 in WeatherDisplay:10.37 W/m2 RA
17:04 -0.7 °F -1.6 °F 995.5 in ESE 3.5 mph 11.1 mph 94% 1.8 in WeatherDisplay:10.37 W/m2 RA
17:09 -0.7 °F -1.6 °F 995.5 in SE 2.4 mph 9.3 mph 94% 1.5 in WeatherDisplay:10.37 W/m2 RA
17:14 -0.7 °F -1.6 °F 995.5 in Calm     94% 1.5 in WeatherDisplay:10.37 W/m2 RA
17:19 -0.7 °F -1.6 °F 995.8 in Calm     94% 1.5 in WeatherDisplay:10.37 W/m2 RA
17:24 -0.7 °F -1.5 °F 995.8 in ENE 1.3 mph 5.6 mph 94% 1.5 in WeatherDisplay:10.37 W/m2 RA
17:29 -0.7 °F -1.5 °F 995.8 in East 2.4 mph 3.7 mph 94% 1.5 in WeatherDisplay:10.37 W/m2 RA
17:34 -0.7 °F -1.5 °F 995.8 in East 2.6 mph 5.6 mph 94% 1.5 in WeatherDisplay:10.37 W/m2 RA
17:39 -0.7 °F -1.5 °F 995.8 in East 1.3 mph 4.8 mph 94% 1.3 in WeatherDisplay:10.37 W/m2 RA
17:44 -0.6 °F -1.4 °F 995.8 in ESE 0.6 mph 3.7 mph 94% 1.5 in WeatherDisplay:10.37 W/m2 RA
17:49 -0.6 °F -1.4 °F 995.8 in Calm   3.7 mph 94% 1.3 in WeatherDisplay:10.37 W/m2 RA
17:54 -0.6 °F -1.4 °F 996.2 in Calm     94% 1.5 in WeatherDisplay:10.37 W/m2 RA
17:59 -0.6 °F -1.4 °F 996.2 in Calm     94% 1.3 in WeatherDisplay:10.37 W/m2 RA
18:04 -0.6 °F -1.4 °F 996.2 in ESE 3.2 mph 5.6 mph 94% 1.3 in WeatherDisplay:10.37 W/m2 FEW
18:09 -0.6 °F -1.4 °F 995.8 in ENE 4.0 mph 5.6 mph 94% 1.3 in WeatherDisplay:10.37 W/m2 RA
18:14 -0.6 °F -1.4 °F 996.2 in ENE 0.2 mph 3.7 mph 94% 1.3 in WeatherDisplay:10.37 W/m2 RA
18:19 -0.5 °F -1.3 °F 996.2 in Calm     94% 1.3 in WeatherDisplay:10.37 W/m2 RA
18:24 -0.5 °F -1.3 °F 996.2 in Calm     94% 1.0 in WeatherDisplay:10.37 W/m2 RA
18:29 -0.5 °F -1.3 °F 996.2 in Calm     94% 1.0 in WeatherDisplay:10.37 W/m2 FEW
18:34 -0.5 °F -1.3 °F 996.2 in Calm     94% 0.8 in WeatherDisplay:10.37 W/m2 FEW
18:39 -0.4 °F -1.3 °F 996.2 in Calm     94% 1.0 in WeatherDisplay:10.37 W/m2 RA
18:44 -0.4 °F -1.3 °F 996.5 in Calm     94% 0.8 in WeatherDisplay:10.37 W/m2 RA
18:49 -0.4 °F -1.3 °F 996.5 in Calm     94% 0.8 in WeatherDisplay:10.37 W/m2 FEW
18:54 -0.4 °F -1.3 °F 996.5 in Calm     94% 0.8 in WeatherDisplay:10.37 W/m2 RA
18:59 -0.4 °F -1.3 °F 996.5 in Calm     94% 0.8 in WeatherDisplay:10.37 W/m2 RA
19:04 -0.4 °F -1.2 °F 996.5 in Calm     94% 0.8 in WeatherDisplay:10.37 W/m2 FEW
19:09 -0.4 °F -1.2 °F 996.5 in Calm     94% 0.5 in WeatherDisplay:10.37 W/m2 FEW
19:14 -0.4 °F -1.2 °F 996.5 in Calm     94% 0.5 in WeatherDisplay:10.37 W/m2 FEW
19:19 -0.3 °F -1.2 °F 996.8 in Calm     94% 0.5 in WeatherDisplay:10.37 W/m2 FEW
19:24 -0.3 °F -1.2 °F 996.5 in Calm     94% 0.5 in WeatherDisplay:10.37 W/m2 FEW
19:29 -0.3 °F -1.2 °F 996.8 in Calm     94% 0.5 in WeatherDisplay:10.37 W/m2 FEW
19:34 -0.3 °F -1.2 °F 996.8 in Calm     94% 0.5 in WeatherDisplay:10.37 W/m2 FEW
19:39 -0.3 °F -1.2 °F 996.8 in Calm     94% 0.5 in WeatherDisplay:10.37 W/m2 RA
19:44 -0.3 °F -1.2 °F 996.8 in ENE 1.0 mph 3.7 mph 94% 0.5 in WeatherDisplay:10.37 W/m2 RA
19:49 -0.3 °F -1.2 °F 996.8 in Calm     94% 0.5 in WeatherDisplay:10.37 W/m2 FEW
19:54 -0.3 °F -1.2 °F 996.8 in Calm     94% 0.3 in WeatherDisplay:10.37 W/m2 FEW
19:59 -0.3 °F -1.2 °F 996.8 in Calm     94% 0.3 in WeatherDisplay:10.37 W/m2 FEW
20:04 -0.3 °F -1.2 °F 997.2 in Calm     94% 0.3 in WeatherDisplay:10.37 W/m2 FEW
20:09 -0.3 °F -1.1 °F 997.2 in Calm   3.7 mph 94% 0.5 in WeatherDisplay:10.37 W/m2 RA
20:14 -0.3 °F -1.1 °F 997.2 in Calm     94% 0.5 in WeatherDisplay:10.37 W/m2 RA
20:19 -0.3 °F -1.1 °F 997.2 in Calm     94% 0.5 in WeatherDisplay:10.37 W/m2 FEW
20:24 -0.3 °F -1.1 °F 997.2 in Calm     94% 0.5 in WeatherDisplay:10.37 W/m2 FEW
20:29 -0.3 °F -1.1 °F 997.5 in Calm     94% 0.5 in WeatherDisplay:10.37 W/m2 FEW
20:34 -0.3 °F -1.1 °F 997.2 in Calm     94% 0.5 in WeatherDisplay:10.37 W/m2 FEW
20:39 -0.2 °F -1.1 °F 997.5 in Calm     94% 0.3 in WeatherDisplay:10.37 W/m2 FEW
20:44 -0.2 °F -1.1 °F 997.5 in Calm     94% 0.3 in WeatherDisplay:10.37 W/m2 FEW
20:49 -0.2 °F -1.1 °F 997.5 in Calm     94% 0.3 in WeatherDisplay:10.37 W/m2 FEW
20:54 -0.2 °F -1.1 °F 997.9 in Calm     94% 0.3 in WeatherDisplay:10.37 W/m2 FEW
20:59 -0.2 °F -1.1 °F 997.9 in Calm     94% 0.3 in WeatherDisplay:10.37 W/m2 FEW
21:04 -0.2 °F -1.1 °F 997.9 in Calm     94% 0.3 in WeatherDisplay:10.37 W/m2 FEW
21:09 -0.2 °F -1.0 °F 997.9 in Calm   3.7 mph 94% 0.0 in WeatherDisplay:10.37 W/m2 FEW
21:14 -0.2 °F -1.0 °F 997.9 in Calm     94% 0.0 in WeatherDisplay:10.37 W/m2 FEW
21:19 -0.2 °F -1.0 °F 997.9 in Calm     94% 0.0 in WeatherDisplay:10.37 W/m2 FEW
21:24 -0.2 °F -1.0 °F 997.9 in Calm     94% 0.0 in WeatherDisplay:10.37 W/m2 FEW
21:29 -0.2 °F -0.9 °F 997.9 in Calm     95% 0.0 in WeatherDisplay:10.37 W/m2 FEW
21:34 -0.2 °F -1.0 °F 997.9 in Calm     94% 0.0 in WeatherDisplay:10.37 W/m2 FEW
21:39 -0.1 °F -0.9 °F 998.2 in Calm     94% 0.0 in WeatherDisplay:10.37 W/m2 FEW
21:44 -0.2 °F -1.0 °F 998.2 in Calm     94% 0.0 in WeatherDisplay:10.37 W/m2 FEW
21:49 -0.2 °F -1.0 °F 997.9 in Calm     94% 0.0 in WeatherDisplay:10.37 W/m2 FEW
21:54 -0.2 °F -1.0 °F 998.2 in Calm     94% 0.0 in WeatherDisplay:10.37 W/m2 FEW
21:59 -0.2 °F -1.0 °F 998.2 in Calm     94% 0.0 in WeatherDisplay:10.37 W/m2 FEW
22:04 -0.2 °F -1.0 °F 998.2 in Calm     94% 0.0 in WeatherDisplay:10.37 W/m2 FEW
22:09 -0.2 °F -1.0 °F 998.2 in Calm     94% 0.0 in WeatherDisplay:10.37 W/m2 FEW
22:14 -0.1 °F -0.9 °F 998.2 in Calm     94% 0.0 in WeatherDisplay:10.37 W/m2 FEW
22:19 -0.1 °F -0.9 °F 998.2 in Calm     94% 0.0 in WeatherDisplay:10.37 W/m2 FEW
22:24 -0.1 °F -0.9 °F 998.2 in Calm     94% 0.0 in WeatherDisplay:10.37 W/m2 FEW
22:29 -0.1 °F -0.9 °F 998.5 in Calm     94% 0.0 in WeatherDisplay:10.37 W/m2 FEW
22:34 -0.1 °F -0.9 °F 998.5 in Calm     94% 0.0 in WeatherDisplay:10.37 W/m2 FEW
22:39 -0.1 °F -0.9 °F 998.5 in Calm     94% 0.0 in WeatherDisplay:10.37 W/m2 FEW
22:44 -0.1 °F -0.9 °F 998.5 in Calm     94% 0.0 in WeatherDisplay:10.37 W/m2 FEW
22:49 -0.1 °F -0.9 °F 998.5 in Calm     94% 0.0 in WeatherDisplay:10.37 W/m2 FEW
22:54 -0.1 °F -0.9 °F 998.9 in Calm     94% 0.0 in WeatherDisplay:10.37 W/m2 FEW
22:59 -0.1 °F -0.8 °F 998.9 in Calm     95% 0.0 in WeatherDisplay:10.37 W/m2 FEW
23:04 -0.1 °F -0.8 °F 998.9 in Calm     95% 0.0 in WeatherDisplay:10.37 W/m2 FEW
23:09 0.0 °F -0.7 °F 998.5 in Calm     95% 0.0 in WeatherDisplay:10.37 W/m2 FEW
23:14 0.0 °F -0.7 °F 998.9 in Calm     95% 0.0 in WeatherDisplay:10.37 W/m2 FEW
23:19 0.0 °F -0.7 °F 998.9 in Calm     95% 0.0 in WeatherDisplay:10.37 W/m2 FEW
23:24 0.0 °F -0.7 °F 998.9 in Calm     95% 0.0 in WeatherDisplay:10.37 W/m2 FEW
23:29 0.0 °F -0.7 °F 998.9 in Calm   3.7 mph 95% 0.0 in WeatherDisplay:10.37 W/m2 FEW
23:34 0.1 °F -0.7 °F 998.9 in Calm     95% 0.0 in WeatherDisplay:10.37 W/m2 FEW
23:39 0.1 °F -0.7 °F 998.9 in Calm     95% 0.0 in WeatherDisplay:10.37 W/m2 FEW
23:44 0.1 °F -0.7 °F 998.9 in Calm   3.7 mph 95% 0.0 in WeatherDisplay:10.37 W/m2 FEW
23:49 0.1 °F -0.7 °F 998.9 in Calm     95% 0.0 in WeatherDisplay:10.37 W/m2 FEW
23:54 0.1 °F -0.7 °F 998.9 in Calm     95% 0.0 in WeatherDisplay:10.37 W/m2 FEW
23:59 0.1 °F -0.7 °F 998.9 in Calm     95% 0.0 in WeatherDisplay:10.37 W/m2 FEW
Tuulensuunkaari, Veikkola, Suomi
Compliments of Weather Underground - 2.75 mb